Location: Burgstemmen
(52.1442°N, 9.7754°E)
Time: 05:47:13
(UTC+00:00)

Daily predictions for brighter satellites

Satellite Brightness Start Highest point End
(mag) Time Altitude Azimuth Time Altitude Azimuth Time Altitude Azimuth
BREEZE-M DEB (TANK) 3.8 00:01:52 24° S 00:02:50 28° SE 00:08:19 10° E
Cosmos 1340 Rocket 3.3 00:02:54 22° SSE 00:05:08 50° E 00:08:58 10° NNE
Cosmos 1980 Rocket 3.8 00:02:39 10° NW 00:06:46 21° W 00:09:35 15° SW
Meteor 2-11 Rocket 4.5 00:02:23 10° N 00:08:35 87° E 00:13:27 17° S
FALCON 9 DEB 2.9 00:05:50 10° WNW 00:09:04 62° SSW 00:12:19 10° ESE
Cosmos 1953 Rocket 3.6 00:12:27 22° S 00:15:18 75° E 00:19:46 10° NNE
USA 276 2.0 00:13:21 10° W 00:16:19 53° S 00:19:15 10° ESE
Cosmos 1934 Rocket 4.0 00:10:17 10° NNW 00:16:20 73° W 00:20:54 18° S
Cosmos 2219 Rocket 3.3 00:11:10 10° NNW 00:16:36 44° NE 00:22:02 10° ESE
Cosmos-2242 4.2 00:15:17 10° NNW 00:18:58 29° W 00:21:15 18° SW
Cosmos 1782 3.9 00:22:05 10° N 00:25:54 41° ENE 00:29:41 10° SE
Cosmos 1825 Rocket 3.9 00:27:01 20° SSW 00:29:50 54° WNW 00:34:06 10° N
Cosmos 1339 Rocket 4.5 00:26:07 18° S 00:30:54 88° W 00:37:08 10° N
CZ-2D R/B 3.1 00:27:38 10° NNE 00:32:29 37° E 00:36:52 12° SSE
Thor Agena Rocket 3.9 00:28:23 10° NNE 00:33:35 60° ESE 00:37:31 17° S
Cosmos 2333 Rocket 2.5 00:27:53 10° NNW 00:33:41 71° NE 00:39:26 10° SE
Cosmos 1633 4.4 00:31:50 12° WSW 00:34:08 20° WNW 00:36:49 10° NNW
MOS 1 Rocket 4.3 00:29:24 10° SE 00:34:13 50° ENE 00:39:18 10° N
Cosmos 2322 Rocket 2.5 00:32:37 10° NW 00:38:07 52° WSW 00:42:36 15° S
SL-27 R/B 4.4 00:35:59 11° SE 00:38:08 18° ESE 00:40:30 10° NE
Cosmos 1842 Rocket 3.6 00:38:07 10° NNW 00:42:38 80° W 00:46:09 16° S
Cosmos 1076 Rocket 4.0 00:40:03 16° SSE 00:43:24 54° E 00:47:41 10° NNE
SJ 16-02 2.3 00:41:54 10° NW 00:45:52 33° WSW 00:48:22 19° SSW
Resurs 1-4 Rocket 2.7 00:42:10 10° NNE 00:47:22 51° E 00:51:56 13° S
UNK 4.5 00:44:10 10° SE 00:48:43 54° ENE 00:53:17 10° N
Cosmos 2058 4.0 00:48:28 16° SW 00:51:24 36° WNW 00:55:19 10° N
USA 267 3.9 00:45:36 10° ENE 00:52:00 59° N 00:58:23 10° WNW
Cosmos 1605 Rocket 4.2 00:45:55 10° NNW 00:52:15 64° W 00:57:40 15° S
Cosmos 972 Rocket 4.2 00:49:49 10° NNW 00:54:40 52° WSW 00:59:04 14° S
Cosmos 1933 3.3 00:51:00 10° NNW 00:55:01 82° W 00:58:17 15° S
ATLAS 5 CENTAUR R/B 1.7 00:52:15 13° WSW 00:55:37 64° NW 01:00:02 10° NE
CZ-4 R/B 4.4 00:51:01 10° NNE 00:55:44 52° E 00:59:58 13° S
Cosmos 2082 Rocket 3.9 00:56:33 10° W 01:01:23 27° NW 01:06:14 10° NNE
SL-4 R/B 3.6 01:00:23 14° S 01:01:55 18° SE 01:04:32 10° E
MOZ.5/SAFIR/RUBIN 5/SL-8 4.3 00:58:40 16° SSW 01:02:08 45° W 01:06:43 10° NNW
Cosmos 2333 4.2 00:59:58 10° NNW 01:05:45 74° WSW 01:11:31 10° SSE
Cosmos 1151 Rocket 4.5 01:03:34 10° N 01:07:39 36° ENE 01:11:43 10° SE
CENTAUR R/B 4.3 01:04:33 10° SSE 01:08:47 21° ESE 01:13:33 10° ENE
SL-24 DEB 4.2 01:05:06 14° S 01:09:05 78° W 01:13:43 10° N
BREEZE-M DEB (TANK) 4.3 01:02:39 10° WNW 01:10:09 30° SW 01:13:14 10° SSE
Cosmos 1833 4.3 01:08:05 15° SSW 01:12:47 73° ESE 01:18:23 10° NNE
COSMOS 2487 3.2 01:11:10 14° S 01:13:26 37° ESE 01:16:19 10° NE
YAOGAN 11 4.4 01:08:56 10° SSE 01:13:29 75° ENE 01:18:02 10° NNW
Cosmos 2221 3.6 01:11:43 10° NNW 01:15:31 30° W 01:18:29 15° SW
Cosmos 1812 2.6 01:12:35 10° NNW 01:16:26 77° W 01:20:00 11° S
Meteor 1-26 Rocket 4.3 01:11:58 10° NNW 01:17:40 68° W 01:23:29 10° S
Helios 1A 3.8 01:13:54 10° SE 01:17:58 51° ENE 01:22:03 10° N
NPP 3.8 01:12:51 10° NNE 01:18:16 73° ESE 01:23:21 12° S
Cosmos 2360 Rocket 2.8 01:13:36 10° NW 01:18:52 40° WSW 01:24:00 10° S
COSMOS 2428 2.9 01:15:47 10° NNW 01:21:32 82° ENE 01:27:16 10° SSE
NOSS 8 (A) 4.4 01:20:19 16° SSW 01:22:48 58° SE 01:25:41 10° NE
Cosmos 1763 Rocket 3.9 01:21:13 12° S 01:25:59 60° ESE 01:31:11 10° NNE
Cosmos 990 Rocket 4.0 01:26:45 10° NNW 01:31:50 60° WSW 01:36:52 10° S
ADEOS II 2.4 01:26:57 10° NNE 01:32:12 65° ESE 01:37:25 10° S
SL-16 R/B 2.7 01:26:42 10° S 01:32:54 62° WSW 01:39:09 10° NNW
Cosmos 2151 3.2 01:31:23 13° SSW 01:35:08 62° WNW 01:39:25 10° N
Gbstr 26 Del rocket 4.2 01:33:01 13° SSW 01:37:10 40° SE 01:42:48 10° ENE
USA 290 2.2 01:34:08 10° NNW 01:37:23 89° W 01:40:37 10° SSE
Cosmos 2237 Rocket 3.3 01:32:07 10° NNW 01:37:39 49° NE 01:43:07 10° SE
Cosmos 468 Rocket 4.3 01:35:09 11° SSW 01:40:16 69° ESE 01:45:34 10° NNE
SL-16 R/B 4.0 01:38:00 10° WNW 01:40:50 14° W 01:43:39 10° SW
Cosmos 2322 3.8 01:36:04 10° NW 01:41:40 60° WSW 01:47:14 10° SSE
Meteor 2-6 Rocket 4.4 01:40:23 10° NNW 01:46:22 81° W 01:52:15 10° S
Cosmos 2297 Rocket 4.1 01:44:28 10° SSE 01:48:41 22° ESE 01:52:55 10° NE
USA 276 3.1 01:49:10 10° W 01:51:38 23° SSW 01:54:06 10° SSE
Cosmos 1340 2.7 01:48:01 10° NNW 01:51:45 84° ENE 01:55:28 10° SSE
Cosmos 1898 Rocket 3.6 01:47:14 10° NNW 01:52:22 60° WSW 01:57:26 10° S
Meteor 1-28 Rocket 3.5 01:53:03 10° S 01:56:37 48° W 02:00:14 10° NNW
Cosmos 1862 3.3 01:54:16 10° SSW 01:58:12 76° WNW 02:02:09 10° N
Cosmos 2219 Rocket 2.7 01:55:16 10° NW 02:00:34 42° WSW 02:05:52 10° S
Cosmos 1782 4.3 01:58:50 10° NW 02:01:54 22° W 02:04:57 10° SW
Lacrosse 4 Rocket 4.5 02:03:58 10° NNW 02:07:06 21° NE 02:10:13 10° E
Cosmos 44 3.2 02:04:23 10° SW 02:09:01 83° NW 02:13:29 10° NE
MSX 3.9 02:05:11 10° NNE 02:11:01 87° ESE 02:16:48 10° SSW
Cosmos 1937 Rocket 3.6 02:06:28 10° NNW 02:11:40 58° WSW 02:16:46 10° S
IDEFIX/ARIANE 42P 2.7 02:06:35 10° NNE 02:11:50 73° WNW 02:17:00 10° SSW
Cosmos 220 Rocket 4.2 02:07:59 10° NNW 02:12:25 84° ENE 02:16:51 10° SSE
CZ-2D R/B 2.9 02:07:44 10° N 02:12:35 40° WNW 02:17:25 10° SW
SL-27 R/B 3.3 02:09:39 10° SW 02:12:46 36° WNW 02:15:52 10° N
EO 1 Del DPAF 3.0 02:09:45 10° NNE 02:13:15 89° WNW 02:16:43 10° SSW
